Location: Unspecified
(0.0000°N, 0.0000°E)
Time: 21:25:19
(UTC+00:00)

BlueWalker 3 - Pass Details

Date: 19 March 2023
Orbit: 497 x 514 km, 53.2° (Epoch: 29 March)

Event Time Altitude Azimuth Distance (km) Brightness Sun altitude
Rises 19:36:04 0° 196° (SSW) 2,622 5.8 -22.1°
Reaches altitude 10° 19:38:30 10° 183° (S) 1,732 4.7 -22.7°
Enters shadow 19:39:00 13° 179° (S) 1,569 4.4 -22.8°
